Weather in Podzavalovo

Russia / Oryol Oblast     53°03′28″N   35°40′28″E
temp.,
°C
wind,
m/s
gust,
m/s
humid.,
%
clouds,
%
prec.,
mm/h
press.,
hPa
HPBL,
m
13 may, thu
thu1300:00+6e48965 0.0 1016156
03:00+6e4109680 0.0 1016230
06:00+7e5129796 0.0 1014375
09:00+9ese61294100 0.8 1014788
12:00+12sse697946 1.5 10141200
15:00+14s696593 2.1 10131692
18:00+14s4774100 0.2 1013921
21:00+9s338774 0.2 101424
14 may, fri
fri1400:00+8se228996 0.0 101516
03:00+8se3491100 0.0 101554
06:00+9se368860 0.0 1015144
09:00+15se4679100 0.0 1015411
12:00+19ese6873100 0.1 10121049
15:00+20sse7117692 6.2 10101183
18:00+19sse61382100 1.1 1009711
21:00+15sse61393100 4.4 1009347
15 may, sat
sat1500:00+13se37966 0.9 1009137
03:00+12s359687 0.9 100889
06:00+12s389592 0.0 1009197
09:00+15ssw6118094 0.0 1010640
12:00+18ssw797064 0.1 10101340
15:00+17sw7107417 0.8 10111241
18:00+16sw587997 0.6 1012763
21:00+13s349171 0.6 101362
16 may, sun
sun1600:00+12ssw3694100 0.0 1013110
03:00+11ssw36940 0.0 1014107
06:00+11ssw25935 0.0 1015127
09:00+16ssw35765 0.0 1015530
12:00+20ssw45655 0.0 10151231
15:00+21ssw35584 0.2 10151669
18:00+21s2367100 0.0 1014296
21:00+16ne227318 0.0 101411
17 may, mon
mon1700:00+14ene358447 0.0 101464
03:00+13ene358988 0.0 101482
06:00+14ene4108863 0.0 1012242
09:00+20ese6107677 0.0 1011473
12:00+24se7106292 0.0 1010869
15:00+25se712636 0.0 10081163
18:00+23se6126912 0.0 1008608
21:00+19se61578100 0.0 1008406